Location: Newark
(43.0000°N, 1.6781°W)
Time: 11:07:46
(UTC+00:00)

Explorer 7 - Pass Details

Date: 20 April 2021
Orbit: 484 x 677 km, 50.3° (Epoch: 07 May)

Event Time Altitude Azimuth Distance (km) Brightness Sun altitude
Rises 22:12:53 0° 281° (W) 2,701 10.9 -29.4°
Reaches altitude 10° 22:15:15 10° 292° (WNW) 1,843 10.1 -29.6°
Enters shadow 22:18:55 31° 352° (N) 1,023 8.6 -30.0°
Maximum altitude 22:19:02 31° 356° (N) 1,023 - -30.0°
Drops below altitude 10° 22:23:03 10° 59° (ENE) 1,957 - -30.4°
Sets 22:25:38 0° 70° (ENE) 2,898 - -30.6°
